Location: *
(47.6569°N, 7.4256°E)
Time: 13:08:51
(UTC+00:00)

Okean O Rocket - Pass Details

Date: 14 December 2019
Orbit: 624 x 644 km, 98.2° (Epoch: 18 January)

Event Time Altitude Azimuth Distance (km) Brightness Sun altitude
Rises 16:42:01 0° 185° (S) 2,893 5.4 -10.1°
Reaches altitude 10° 16:44:19 10° 193° (SSW) 1,991 4.7 -10.5°
Maximum altitude 16:48:21 38° 262° (W) 964 3.2 -11.1°
Drops below altitude 10° 16:52:26 10° 331° (NNW) 2,009 4.3 -11.8°
Sets 16:54:46 0° 340° (NNW) 2,923 5.0 -12.1°
